Location: Plymouth
(43.7490°N, 87.9770°W)
Time: 15:35:41
(UTC-05:00)

Daily predictions for brighter satellites

Satellite Brightness Start Highest point End
(mag) Time Altitude Azimuth Time Altitude Azimuth Time Altitude Azimuth
ERS-1 Rocket 3.4 21:03:13 10° SE 21:08:04 51° ENE 21:12:57 10° N
Cosmos 1818 3.9 21:04:59 10° NNW 21:10:23 59° NE 21:15:43 10° SE
Cosmos 2227 Rocket 2.6 21:05:46 10° SSW 21:11:24 72° WNW 21:17:05 10° NNE
Meteor 1-24 Rocket 4.0 21:08:09 10° S 21:14:05 85° W 21:19:53 10° N
Lacrosse 4 Rocket 2.4 21:10:10 10° SW 21:14:19 53° WNW 21:18:37 10° NNE
Cosmos 1727 Rocket 4.1 21:08:16 10° S 21:14:34 81° E 21:20:57 10° N
Cosmos 1908 4.0 21:12:22 10° N 21:16:00 37° ENE 21:19:36 10° SE
Cosmos 1674 3.5 21:14:05 10° SSE 21:17:27 32° E 21:20:50 10° NNE
Cosmos 1741 Rocket 4.3 21:12:21 10° S 21:17:27 49° ESE 21:22:34 10° NNE
SL-16 R/B 2.3 21:13:16 10° NNW 21:18:58 76° ENE 21:24:37 10° SSE
Cosmos 1184 Rocket 2.9 21:17:15 10° S 21:20:36 88° WNW 21:23:59 10° N
In-Cosmos 22 4.3 21:19:25 10° S 21:25:07 88° E 21:30:56 10° N
NOSS 3-4 (A) 4.2 21:18:28 10° NW 21:25:26 64° WSW 21:32:51 10° SSE
NOSS 3-4 (C) 4.2 21:18:34 10° NW 21:25:32 65° WSW 21:32:57 10° SSE
ARGOS 3.6 21:20:50 10° SE 21:25:59 47° ENE 21:31:10 10° N
MetOp-A 4.3 21:23:03 10° SSE 21:28:20 63° ENE 21:33:37 10° N
Cosmos 1356 Rocket 3.8 21:28:49 10° SSE 21:32:53 46° E 21:37:01 10° NNE
Cosmos 1076 Rocket 3.8 21:29:03 10° S 21:33:17 52° E 21:37:32 10° NNE
Tiangong 1 0.9 21:30:38 10° WSW 21:33:23 52° SSE 21:36:06 10° E
Cosmos 2333 Rocket 4.3 21:34:49 10° NW 21:39:04 22° W 21:43:19 10° SSW
Terra 3.5 21:36:36 10° ESE 21:40:02 20° ENE 21:43:29 10° NNE
Cosmos 2016 Rocket 4.3 21:35:48 10° N 21:41:55 52° ENE 21:47:32 12° SSE
Cosmos 2221 2.7 21:39:17 10° NNW 21:43:40 76° W 21:48:03 10° S
Meteor 1-29 4.3 21:40:48 10° N 21:44:04 42° WNW 21:47:19 10° SW
Okean 3 Rocket 3.7 21:39:53 10° S 21:44:24 86° W 21:48:55 10° N
Cosmos 2208 Rocket 4.1 21:44:03 10° NNW 21:49:23 86° WSW 21:54:24 12° SSE
ERBS 4.2 21:48:38 10° NNW 21:51:26 23° NNE 21:54:15 10° E
NOAA 11 4.3 21:46:43 10° S 21:52:08 75° WSW 21:57:35 10° NNW
Cosmos 2227 4.5 21:48:56 10° S 21:54:23 48° ESE 21:59:52 10° NE
RESURS DK-1 3.1 21:52:26 10° NNW 21:56:26 42° ENE 21:59:21 17° SE
Cosmos 1242 Rocket 2.8 21:55:31 10° NNW 21:59:14 70° W 22:02:30 13° S
SL-08 RB Rocket 3.7 21:56:03 14° SSE 21:59:54 75° ENE 22:04:31 10° N
SPOT 1/Viking Rocket 3.7 21:56:35 15° SSE 22:00:49 64° ENE 22:05:56 10° N
YAOGAN 11 4.2 21:58:18 13° SSE 22:02:15 88° WSW 22:06:50 10° NNW
Cosmos 1766 Rocket 3.5 21:58:48 10° S 22:03:05 74° E 22:07:27 10° NNE
Cosmos 1570 Rocket 4.5 21:58:41 10° NNW 22:03:54 59° WSW 22:08:43 12° S
USA 245 3.1 22:03:34 17° S 22:06:00 80° W 22:10:05 10° NNW
Meteor 1-21 Rocket 4.3 22:00:18 10° S 22:06:00 84° W 22:11:38 10° N
EO 1 Delta rocket 3.9 22:04:01 16° SSE 22:07:42 64° ENE 22:12:18 10° N
Cosmos 1328 Rocket 3.9 22:05:56 10° N 22:10:11 50° ENE 22:12:50 21° SSE
Cosmos 1763 Rocket 4.2 22:06:27 10° N 22:11:18 41° ENE 22:14:36 19° SE
Cosmos 2228 Rocket 3.5 22:07:09 10° N 22:11:38 49° ENE 22:14:28 21° SE
Cosmos 2297 Rocket 4.1 22:07:15 10° WSW 22:12:17 32° NW 22:17:20 10° N
SL-14 R/B 3.7 22:10:43 20° SSE 22:13:07 45° E 22:16:54 10° NNE
Cosmos 1515 Rocket 4.2 22:09:35 10° N 22:13:41 40° ENE 22:16:02 22° SE
Cosmos 1328 4.0 22:15:50 21° SSE 22:18:17 52° E 22:22:13 10° NNE
Cosmos 1867 3.7 22:13:20 10° SW 22:18:46 78° NW 22:24:16 10° NNE
Cosmos 1743 Rocket 3.8 22:16:55 21° SSE 22:19:33 49° E 22:23:44 10° NNE
H-2A R/B 3.0 22:17:20 20° ESE 22:19:40 34° ENE 22:23:31 10° N
Cosmos 1151 Rocket 3.8 22:18:36 10° N 22:22:44 39° ENE 22:24:51 24° SE
Cosmos 1300 2.7 22:19:08 10° N 22:22:59 72° E 22:25:01 26° SSE
Cosmos 2263 Rocket 3.1 22:21:44 21° SE 22:24:07 29° ESE 22:28:52 10° NE
Cosmos 2061 Rocket 4.5 22:18:14 10° NNW 22:24:30 61° W 22:30:43 10° S
Cosmos 1626 3.5 22:25:42 21° ESE 22:26:26 23° E 22:29:25 10° NE
Cosmos 1726 2.3 22:27:41 10° NNW 22:31:22 66° W 22:33:27 24° S
SPOT 5 3.7 22:28:20 14° S 22:32:18 48° W 22:37:11 10° NNW
ATLAS 5 CENTAUR R/B 3.1 22:28:14 10° WSW 22:32:46 44° NW 22:37:43 10° NNE
Cosmos 2084 4.4 22:30:04 10° WSW 22:33:51 44° NW 22:37:33 10° NNE
Meteor 2-10 4.2 22:28:17 10° N 22:33:53 85° E 22:37:39 22° SSE
Lacrosse 5 1.8 22:30:12 10° NW 22:35:17 86° SW 22:38:08 26° SE
IGS 5A 3.6 22:33:58 28° SE 22:35:57 60° ENE 22:40:04 10° N
Cosmos 2123 Rocket 4.0 22:30:34 13° S 22:36:15 89° W 22:42:30 10° N
Cosmos 468 Rocket 4.2 22:33:29 10° NNW 22:38:34 64° WSW 22:41:44 23° S
Cosmos 371 Rocket 3.2 22:37:01 10° NNW 22:41:51 88° W 22:44:22 29° SSE
USA 234 3.4 22:36:47 10° NE 22:43:20 80° NW 22:49:53 10° WSW
H-2A R/B 2.6 22:41:25 18° S 22:45:15 55° W 22:50:35 10° NNW
Cosmos 1603 4.0 22:40:22 10° NNW 22:45:57 62° WSW 22:49:18 24° S
Abrixas rocket 2.4 22:43:06 10° WNW 22:46:20 68° NNE 22:47:34 34° E
PSLV R/B 3.6 22:49:40 40° E 22:49:51 40° ENE 22:52:34 10° N
CZ-4C R/B 4.5 22:53:11 27° ESE 22:54:42 36° ENE 22:58:43 10° N
Cosmos 1455 3.0 22:53:18 10° N 22:56:57 38° ENE 22:57:48 33° ESE
Cosmos 1725 Rocket 4.4 22:52:02 10° NNW 22:58:10 60° W 23:02:34 19° SSW
Cosmos 220 Rocket 4.2 22:57:31 17° SSW 23:00:53 70° WNW 23:05:16 10° NNE
SL-16 R/B 4.4 22:59:04 10° WNW 23:02:21 16° W 23:05:37 10° SW
Landsat 7 4.5 22:59:49 23° SSW 23:02:29 49° W 23:07:07 10° NNW
Cosmos 1943 3.1 22:57:35 10° NNW 23:03:16 88° WSW 23:05:59 32° SSE
deb Chang Zheng 4 3.5 23:01:00 10° NNE 23:05:23 73° ESE 23:07:04 37° S
Sich 1 4.3 23:07:51 24° E 23:08:17 24° E 23:11:45 10° NE
Tiangong 1 1.9 23:06:05 10° W 23:07:55 36° WSW 23:07:55 36° WSW
CZ-4C R/B 3.7 23:09:43 18° ESE 23:09:43 18° ESE 23:12:59 10° ENE
CZ-4B R/B 3.6 23:05:49 10° NNE 23:11:04 61° ESE 23:13:09 35° SSE
CZ-4 R/B 3.8 23:07:27 10° NNE 23:12:21 77° ESE 23:14:23 35° S
Cosmos 1707 Rocket 4.3 23:11:20 10° N 23:15:34 40° ENE 23:16:42 34° ESE
Cosmos 540 Rocket 3.7 23:11:32 10° NNW 23:16:38 58° ENE 23:18:37 35° SE
Cosmos 2058 3.1 23:15:04 35° SSW 23:16:45 71° W 23:20:59 10° N
Cosmos 1703 3.2 23:16:13 45° SSW 23:17:23 85° W 23:21:24 10° N
Terra 2.4 23:15:15 28° SSW 23:17:25 49° W 23:22:04 10° NNW
Cosmos 1356 4.0 23:18:00 38° SW 23:19:01 55° WNW 23:22:28 10° N
Cosmos 1464 Rocket 4.1 23:17:09 10° N 23:23:15 61° E 23:25:54 34° SE
ERBS 2.9 23:25:00 10° WNW 23:27:57 44° WSW 23:27:57 44° WSW
Cosmos 1354 Rocket 3.9 23:26:34 36° S 23:28:46 79° ESE 23:34:02 10° NNE
Cosmos 1666 Rocket 4.0 23:31:40 43° ESE 23:32:19 46° E 23:36:36 10° NNE
Cosmos 2151 4.0 23:30:35 23° SW 23:32:47 41° WNW 23:36:53 10° N
RESURS DK-1 4.4 23:31:18 10° WNW 23:34:09 18° WSW 23:35:16 16° SW
SME Rocket 2.9 23:34:18 58° SSE 23:35:03 87° WSW 23:39:33 10° NNW
CZ-2C R/B 3.4 23:31:17 10° NNE 23:36:08 35° E 23:37:06 32° ESE
BREEZE-M DEB (TANK) 4.0 23:36:57 10° WNW 23:40:09 50° NNE 23:51:52 10° E
Spot 4 4.2 23:39:25 38° SSW 23:41:00 57° W 23:45:49 10° NNW
Cosmos 1805 Rocket 3.4 23:42:51 55° SSW 23:43:46 88° W 23:48:08 10° N
Cosmos 304 Rocket 3.9 23:43:05 10° NNW 23:47:51 64° WSW 23:48:57 48° SSW
Cosmos 2278 Rocket 4.2 23:49:02 12° E 23:49:16 12° E 23:51:24 10° ENE
Cosmos 1633 Rocket 3.1 23:49:53 55° SE 23:50:21 59° E 23:54:38 10° NNE
Tsikada Rocket 4.3 23:50:59 37° SE 23:53:10 54° E 23:59:19 10° NNE
H-2A R/B 3.7 23:54:28 20° WSW 23:55:43 23° W 23:59:09 10° NW
